CZ-4C DEB, 43601

Orbit data source: Space-Track

CZ-4C DEB, 43601 is space debris in SSO originally from a launch on Tue, 09 Aug 2016 UTC launched from the Taiyaun Space Center, China (TSC). Debris objects in space refer to the collection of defunct objects orbiting the Earth. Examples of debris include non-operational satellites, rocket bodies, and fragments generated from explosions, collisions, or faulty payload assembly.

Loading next visibility...
Identifier
43601, 2016-049F
Orbit
SSO
Country
Flag of CNCN / PRC
Related business
Manufacturer
Unknown
Mission
Spacecraft
Bus & Motor
Unknown
Mass
Unknown
Launch date (UTC)
2016-08-09 (9 years ago)
Launch vehicle
Unknown
Launch site
Taiyaun Space Center, China (TSC)
Object type
Payload
Rocket body
Debris
Shape & HBR
Unknown shape, 0.1 m
Radar Cross Section
Small (<0.1 m²)

Expand to show TLE details & history
Last TLE update: 1 day ago

TLE from 1 day ago
0 CZ-4C DEB
1 43601U 16049F   26035.30990902  .00019994  00000-0  16574-2 0  9999
2 43601  98.3193 169.2822 0068390 272.0308  87.3081 14.97029744612730
Epoch: 2026-02-04T07:26Z
TLE epoch observation values (Epoch: 2026-02-04T07:26:16.139Z)
Latitude
-0.00002°
Longitude
-76.76337°
Altitude
577.202 km
Speed
7.573 km/s
True Right ascension
11h 17m 07s
True Declination
0° 00' 00"
Sunlit
Object was in full shadow at epoch
Visualization orbit readout
Latitude
Unknown
Longitude
Unknown
Altitude
Unknown
Speed
Unknown
Apparent Right ascension
Unknown
Apparent Declination
Unknown
Sunlit
N/A
Visualization observer readout
Local Sidereal Time
15:19:48
Azimuth
Unknown
Elevation
Unknown
Doppler factor
Unknown
Orbital elements
Apogee altitude
620.657 km
Perigee altitude
525.577 km
Semi-major axis
6,951.254 km
Eccentricity
0.00684
Inclination
98.3193°
RAAN
169.2822°
Arg. of periapsis
272.0308°
True anomaly
88.09122°
Mean anomaly
87.3081°
Eccentric anomaly
87.69963°
Mean motion
3.74497 °/min
Orbital period
96.13 mins
BSTAR
0.0016574
Loading maneuver chart data...
Computing Atmospheric mass density...
Loading historical data...
Loading historical data...
Loading historical data...
Loading historical data...
Loading historical data...
Loading historical data...
Loading historical data...
Other satellites on launch #49 in the year 2016 (2016-08-09 UTC)

Documentation

Showing up to 5 results
|